GAOFEN-3

Last updated on Mon Jun 22 2026 00:02:51 GMT+0000 (Coordinated Universal Time)

1 41727U 16049A 26172.52416935 .00000126 00000+0 51315-4 0 9991 2 41727 98.4013 180.2452 0001476 97.9116 262.2242 14.42216237519277
UTC large
Height (km)
Speed (km/s)
/
Latitude / Longitude
Inclination (degrees)
Orbital Period (minutes)
Azimuth
Elevation
Range (km)
Doppler Factor

Next 0 passes for location: London (51.5072 / 0.1276)

No passes found over London.
GAOFEN-3